This is the latest recevied weather packets stored in our database for station/object BV5AB-13. If no packets are shown the sender has not sent any weather packets the latest 10 day(s).
| Time | Temp. | Humidity | Pressure | Rain* | Wind** | Luminosity | Snow |
|---|---|---|---|---|---|---|---|
| 1777785423 | 31.11° C | 68% | 1001 hPa | 0 mm | - | - | - |
| 1777784823 | 31.67° C | 67% | 1001 hPa | 0 mm | - | - | - |
| 1777784224 | 31.11° C | 67% | 1001.1 hPa | 0 mm | - | - | - |
| 1777783623 | 31.11° C | 68% | 1001.2 hPa | 0 mm | - | - | - |
| 1777783023 | 31.11° C | 65% | 1001.3 hPa | 0 mm | - | - | - |
| 1777782425 | 31.67° C | 62% | 1001.3 hPa | 0 mm | - | - | - |
| 1777781825 | 30.56° C | 63% | 1001.3 hPa | 0 mm | - | - | - |
| 1777781224 | 31.67° C | 61% | 1001.4 hPa | 0 mm | - | - | - |
| 1777780624 | 30.56° C | 61% | 1001.4 hPa | 0 mm | - | - | - |
| 1777780024 | 31.11° C | 65% | 1001.4 hPa | 0 mm | - | - | - |
| 1777779424 | 30.56° C | 64% | 1001.4 hPa | 0 mm | - | - | - |
| 1777778823 | 30.56° C | 65% | 1001.4 hPa | 0 mm | - | - | - |
| 1777778224 | 30.56° C | 65% | 1001.5 hPa | 0 mm | - | - | - |
| 1777777624 | 30.56° C | 71% | 1001.4 hPa | 0 mm | - | - | - |
| 1777777024 | 30° C | 67% | 1001.5 hPa | 0 mm | - | - | - |
| 1777776423 | 30° C | 68% | 1001.7 hPa | 0 mm | - | - | - |
| 1777775823 | 29.44° C | 68% | 1001.9 hPa | 0 mm | - | - | - |
| 1777775223 | 29.44° C | 67% | 1002 hPa | 0 mm | - | - | - |
| 1777774624 | 29.44° C | 67% | 1002.1 hPa | 0 mm | - | - | - |
| 1777774023 | 29.44° C | 70% | 1002.2 hPa | 0 mm | - | - | - |
| 1777773423 | 29.44° C | 70% | 1002.2 hPa | 0 mm | - | - | - |
| 1777772823 | 29.44° C | 68% | 1002.3 hPa | 0 mm | - | - | - |
| 1777772223 | 28.89° C | 69% | 1002.2 hPa | 0 mm | - | - | - |
| 1777771624 | 28.89° C | 68% | 1002.1 hPa | 0 mm | - | - | - |
| 1777771024 | 28.89° C | 67% | 1002 hPa | 0 mm | - | - | - |
* Rain latest hour (hover to see other rain measurements)
** Current wind speed in m/s (hover to see current wind gust speed)